This is the latest recevied weather packets stored in our database for station/object JR5VPD-10. If no packets are shown the sender has not sent any weather packets the latest 10 day(s).
| Time | Temp. | Humidity | Pressure | Rain* | Wind** | Luminosity | Snow |
|---|---|---|---|---|---|---|---|
| 1787776572 | 28.89° C | 82% | 1006.3 hPa | 0 mm | 0 m/s | - | - |
| 1787774772 | 28.89° C | 82% | 1006.1 hPa | 0 mm | 0 m/s | - | - |
| 1787772972 | 28.89° C | 81% | 1006 hPa | 0 mm | 0 m/s | - | - |
| 1787771172 | 30° C | 76% | 1006.1 hPa | 0 mm | 0 m/s | - | - |
| 1787769372 | 28.89° C | 78% | 1005.9 hPa | 0 mm | 0 m/s | - | - |
| 1787767572 | 30° C | 76% | 1005.8 hPa | 0 mm | 0 m/s | - | - |
| 1787765772 | 30° C | 74% | 1005.8 hPa | 0 mm | 0 m/s | - | - |
| 1787763972 | 30° C | 75% | 1005.7 hPa | 0 mm | 0 m/s | - | - |
| 1787762172 | 30.56° C | 74% | 1005.8 hPa | 0 mm | 0 m/s | - | - |
| 1787760372 | 30° C | 77% | 1006 hPa | 0 mm | 0 m/s | - | - |
| 1787758572 | 30° C | 85% | 1006.1 hPa | 0 mm | 0 m/s | - | - |
| 1787756772 | 30° C | 90% | 1006.3 hPa | 0 mm | 0 m/s | - | - |
| 1787754972 | 30.56° C | 88% | 1006.4 hPa | 0 mm | 0 m/s | - | - |
| 1787753172 | 30.56° C | 89% | 1006.8 hPa | 0 mm | 0 m/s | - | - |
| 1787751372 | 30.56° C | 90% | 1006.7 hPa | 0 mm | 0 m/s | - | - |
| 1787749572 | 30.56° C | 85% | 1006.5 hPa | 0 mm | 0 m/s | - | - |
| 1787747772 | 30.56° C | 83% | 1006.7 hPa | 0 mm | 0 m/s | - | - |
| 1787745972 | 31.67° C | 84% | 1006.8 hPa | 0 mm | 0 m/s | - | - |
| 1787744172 | 30.56° C | 81% | 1006.6 hPa | 0 mm | 0 m/s | - | - |
| 1787742372 | 31.67° C | 82% | 1006.6 hPa | 0 mm | 0 m/s | - | - |
| 1787740572 | 30.56° C | 83% | 1006.1 hPa | 0 mm | 0 m/s | - | - |
| 1787738772 | 30.56° C | 87% | 1005.9 hPa | 0 mm | 0 m/s | - | - |
| 1787736972 | 30.56° C | 88% | 1005.6 hPa | 0 mm | 0 m/s | - | - |
| 1787735172 | 31.67° C | 78% | 1005.4 hPa | 0 mm | 0 m/s | - | - |
| 1787733372 | 31.67° C | 74% | 1005 hPa | 0 mm | 0 m/s | - | - |
* Rain latest hour (hover to see other rain measurements)
** Current wind speed in m/s (hover to see current wind gust speed)